Regional Weather Roundup
Issued by NWS

Home | Current Version | Previous Version | Text Only | Print | Product List | Glossary Off
Versions: 1 2 3 4 5 6 7 8 9 10 11 12 13 14 15 16 17 18 19 20 21 22 23 24 25 26 27 28 29 30 31 32 33 34 35 36 37 38 39 40 41 42 43 44 45 46 47 48 49 50

000
ASUS43 KMPX 140110
RWRMN
WEATHER ROUNDUP FOR MINNESOTA
NATIONAL WEATHER SERVICE TWIN CITIES/CHANHASSEN MN
700 PM CST WED DEC 13 2017


NOTE: "FAIR" INDICATES FEW OR NO CLOUDS BELOW 12,000 FEET WITH NO
SIGNIFICANT WEATHER AND/OR OBSTRUCTIONS TO VISIBILITY. N/A MEANS
CURRENT SKY AND/OR WEATHER CONDITIONS ARE NOT AVAILABLE.

MNZ060>063-068>070-140200-
   Twin Cities Metro

CITY           SKY/WX    TMP DP  RH WIND       PRES   REMARKS
TWIN CITIES    CLOUDY    23  17  78 NW13      29.87R WCI  11
ST PAUL        CLOUDY    23  17  78 NW14      29.89R WCI  11
CRYSTAL        PTCLDY    21  13  71 NW9       29.87R WCI  11
BLAINE         CLEAR     21  18  86 NW10      29.87R WCI  10
LAKEVILLE      MOCLDY    21  18  86 NW12G18   29.86R WCI   9
EDEN PRAIRIE   MOCLDY    23  15  71 N12       29.85R WCI  12
SOUTH ST PAUL  CLOUDY    24  17  74 N9G16     29.87R WCI  15
LAKE ELMO      FAIR      21  18  86 NW8       29.87R WCI  12
$$
MNZ001>005-007-008-013>017-022>024-027-028-140200-
   Northwest Minnesota

CITY           SKY/WX    TMP DP  RH WIND       PRES   REMARKS
BEMIDJI        CLOUDY    14  10  83 N6        29.90S WCI   5
HALLOCK        CLOUDY    18  14  86 N10       29.98R WCI   6
ROSEAU         CLOUDY    16  10  79 N7        29.95R WCI   6
WARROAD        CLOUDY     9   3  78 NW3       29.94S
THIEF RVR FALL FLURRIES  16  12  84 N7        29.95R WCI   6
CROOKSTON      CLOUDY    18  12  79 N12       29.97S WCI   5
FOSSTON        CLOUDY    12  10  92 N13       29.92S WCI  -3
DETROIT LAKES  CLOUDY    19  14  79 N12G18    29.90S WCI   7
MOORHEAD       MIX PCPN  19  16  86 N17G23    29.96R WCI   4
PARK RAPIDS    CLOUDY    16  11  80 N8        29.88R WCI   5
MAHNOMEN       CLOUDY    17  12  82 N12       29.92R WCI   4
$$
MNZ006-009>011-018-025>026-140200-
   North Central Minnesota

CITY           SKY/WX    TMP DP  RH WIND       PRES   REMARKS
BAUDETTE       CLOUDY     9   6  88 NW5       29.92R WCI   1
FLAG ISLAND    CLOUDY     7   5  92 CALM      29.92S
INTL FALLS     CLOUDY    17  11  77 N5        29.90R WCI  10
WASKISH        CLOUDY    14  10  85 NW5       29.92S WCI   6
BIG FORK       FLURRIES  18  12  79 N3        29.89R
LONGVILLE      FLURRIES  16  12  86 NW5       29.89R WCI   9
GRAND RAPIDS   CLOUDY    19  14  81 N10       29.89R WCI   7
CRANE LAKE     CLOUDY    12  10  92 CALM      29.91S
ORR            CLOUDY    16  10  79 CALM      29.86R
COOK           CLOUDY    16  10  79 CALM      29.89R
WALKER         CLOUDY    15  10  83 NW12      29.90R WCI   1
$$
MNZ012-019>021-037-140200-
   Northeast Minnesota

CITY           SKY/WX    TMP DP  RH WIND       PRES   REMARKS
DULUTH         FLURRIES  17  13  84 N10       29.84R WCI   5
ELY            FLURRIES  12   9  85 CALM      29.87R
HIBBING        CLOUDY    17  12  80 N7        29.87R WCI   8
EVELETH        FLURRIES  17  12  79 NW3       29.88R
DULUTH HARBOR  CLOUDY    25  19  80 N14       29.88R WCI  13
TWO HARBORS    CLEAR     18  12  79 NW5       29.84R WCI  11
SILVER BAY     CLEAR     12  10  92 CALM      29.84R
GRAND MARAIS     N/A     11   3  70 N13G26    29.86R WCI  -4
G MARAIS ARPRT CLEAR      1  -4  78 NW7       29.79R WCI -11
$$
MNZ029>031-032-039>041-046>048-054>057-064-140200-
   West Central Minnesota

CITY           SKY/WX    TMP DP  RH WIND       PRES   REMARKS
FERGUS FALLS   CLOUDY    19  12  73 N15G22    29.95R WCI   5
WHEATON        CLOUDY    23  19  86 N15G21    29.96R WCI  10
MORRIS         CLOUDY    23  18  80 N15       29.91R WCI  10
ALEXANDRIA     CLOUDY    20  15  81 N10       29.89R WCI   9
ELBOW LAKE     CLOUDY    21  16  82 N16       29.90R WCI   7
WADENA         CLEAR     16  10  79 N9        29.88S WCI   4
GLENWOOD       MOCLDY    21  16  79 N13       29.89R WCI   9
APPLETON       CLOUDY    27  19  74 N20G29    29.92R WCI  13
BENSON         CLOUDY    25  18  74 NE12      29.92R WCI  14
ORTONVILLE     CLOUDY    25  21  86 N13G21    29.93R WCI  13
MADISON        CLOUDY    28  25  86 N15G24    29.93R WCI  17
WILLMAR        CLOUDY    25  19  80 N16       29.90R WCI  12
$$
MNZ033>034-036-042>043-049>051-058-059-140200-
   Central Minnesota

CITY           SKY/WX    TMP DP  RH WIND       PRES   REMARKS
ST CLOUD       MOCLDY    19  13  77 N10       29.88R WCI   7
SAUK CENTRE    CLOUDY    20  14  78 N10       29.90R WCI   9
PAYNESVILLE    MOCLDY    20  17  86 N6        29.91R WCI  13
AITKIN         CLOUDY    16  10  79 NW6       29.87R WCI   7
PINE RIVER     CLOUDY    16  10  79 N9        29.93R WCI   4
BRAINERD       MOCLDY    16  11  80 N10       29.89R WCI   4
STAPLES        CLOUDY    16  12  86 N9        29.90R WCI   4
LONG PRAIRIE   CLOUDY    18  14  86 NW8       29.89R WCI   7
LITTLE FALLS   MOCLDY    19  10  68 N3        29.90R
LITCHFIELD     CLOUDY    23  18  80 N12       29.90R WCI  12
BUFFALO        MOCLDY    21  15  76 NW7       29.90R WCI  12
MAPLE LAKE     CLOUDY    22  17  82 N12       29.90R WCI  10
HUTCHINSON     MOCLDY    24  18  77 N17G24    29.89R WCI  10
$$
MNZ037-044-045-052-053-140200-
   East Central Minnesota

CITY           SKY/WX    TMP DP  RH WIND       PRES   REMARKS
PRINCETON      CLEAR     19  14  79 NW7       29.88R WCI  10
MORA           CLOUDY    21  16  79 N12       29.89R WCI   9
CAMBRIDGE      CLEAR     19  12  73 NW3       29.88R
RUSH CITY      MOCLDY    20  16  84 N6        29.87R WCI  12
MOOSE LAKE     FLURRIES  23  18  80 N8        29.85R WCI  14
HINCKLEY       FLURRIES  23  19  86 NW9       29.87R WCI  13
CLOQUET        CLOUDY    19  12  73 N9        29.85R WCI   9
MCGREGOR       CLOUDY    21  18  86 N7        29.87R WCI  13
$$
MNZ071>073-080-081-089-090-097-098-140200-
   Southwest Minnesota

CITY           SKY/WX    TMP DP  RH WIND       PRES   REMARKS
MONTEVIDEO     CLOUDY    25  21  86 N22       29.91R WCI  10
GRANITE FALLS  CLOUDY    28  23  80 NW21G26   29.93R WCI  15
CANBY          CLOUDY    28  27  93 N12       29.93R WCI  18
MARSHALL       CLOUDY    26  24  92 N16       29.91R WCI  14
REDWOOD FALLS  CLOUDY    27  19  72 N14G24    29.89R WCI  16
OLIVIA         CLOUDY    28  21  74 N12       29.88R WCI  18
PIPESTONE      CLOUDY    30  25  80 N15G22    29.87R WCI  19
WINDOM           N/A     27  16  63 N25G33    29.85R WCI  11
WORTHINGTON    CLOUDY    31  25  78 NW21G28   29.86R WCI  18
JACKSON        CLOUDY    30  23  74 MISG      29.85R
TRACY          CLOUDY    28  27  93 N17G24    29.89R FOG     WCI  16
SLAYTON        CLOUDY    30  27  87 NW15G23   29.87R WCI  19
$$
MNZ065>067-074>077-082>085-091>093-140200-
   South Central Minnesota

CITY           SKY/WX    TMP DP  RH WIND       PRES   REMARKS
MANKATO        FLURRIES  24  19  81 N21       29.86R WCI   9
NEW ULM        CLOUDY    25  18  74 N15       29.87R WCI  12
ST JAMES       CLOUDY    27  21  80 NW20G29   29.87R WCI  13
FAIRMONT       CLOUDY    27  21  78 N23G29    29.84R WCI  12
GLENCOE        FLURRIES  24  21  85 NW12      29.88R WCI  13
FARIBAULT      CLOUDY    25  18  74 NW13G18   29.85R WCI  13
OWATONNA       CLOUDY    25  19  80 N17       29.83R WCI  11
WASECA         FLURRIES  23  19  86 N17       29.86R WCI   9
ALBERT LEA     CLOUDY    25  18  74 N16G24    29.80R WCI  12
$$
MNZ078>079-086>088-094>096-140200-
   Southeast Minnesota

CITY           SKY/WX    TMP DP  RH WIND       PRES   REMARKS
ROCHESTER      CLOUDY    22  18  85 N18       29.78R WCI   7
RED WING       MOCLDY    25  12  58 N9        29.84R WCI  15
STANTON        CLOUDY    25  19  76 N12       29.84R WCI  14
DODGE CENTER   CLOUDY    21  18  86 N20       29.79R WCI   6
WINONA         CLOUDY    23  16  74 N6        29.83R WCI  16
AUSTIN         CLOUDY    25  18  74 N13G22    29.80R WCI  13
PRESTON        CLOUDY    22  17  78 N16G22    29.77R WCI   9
$$
ABBREVIATIONS USED IN REMARKS
   TC - TEMPERATURES IN CELSIUS
  WCI - WIND CHILL INDEX
   HX - HEAT INDEX
  VSB - VISIBILITY
$$



USA.gov is the U.S. government's official web portal to all federal, state and local government web resources and services.